• în Republica Moldova
  • Lista ţărilor
  • Pe 7 zile
  • Temperatura apei
  • Hartă satelitară
  • Meteo pe hartă
  • Widget-uri
  • user-avatar
    Intrare

    Meteo pe oră la Minkino

    Astăzi, 14 Noiembrie, Miercuri

    Timp Temperatura Precipitaţii Vânt Presiune Umiditate
    00:00 -4°C° 0.3 mm 6 m/s 746 mmHg 64%
    01:00 -4°C° 0.3 mm 6 m/s 745 mmHg 70%
    02:00 -4°C° 0 mm 5 m/s 744 mmHg 75%
    03:00 -5°C° 0.9 mm 5 m/s 744 mmHg 78%
    04:00 -5°C° 0.9 mm 5 m/s 744 mmHg 82%
    05:00 -5°C° 0.9 mm 5 m/s 743 mmHg 85%
    06:00 -5°C° 0.7 mm 5 m/s 743 mmHg 85%
    07:00 -5°C° 0.7 mm 5 m/s 743 mmHg 85%
    08:00 -4°C° 0.7 mm 4 m/s 743 mmHg 85%
    09:00 -4°C° 0.9 mm 4 m/s 743 mmHg 87%
    10:00 -4°C° 0.9 mm 4 m/s 744 mmHg 88%
    11:00 -4°C° 0.9 mm 4 m/s 744 mmHg 89%
    12:00 -4°C° 0.5 mm 3 m/s 744 mmHg 88%
    13:00 -4°C° 0.5 mm 3 m/s 744 mmHg 88%
    14:00 -4°C° 0.5 mm 3 m/s 744 mmHg 87%
    15:00 -4°C° 0.3 mm 3 m/s 744 mmHg 88%
    16:00 -3°C° 0.3 mm 2 m/s 745 mmHg 88%
    17:00 -3°C° 0.3 mm 2 m/s 745 mmHg 88%
    18:00 -3°C° 0.2 mm 2 m/s 745 mmHg 88%
    19:00 -1°C° 0.2 mm 1 m/s 745 mmHg 89%
    20:00 -1°C° 0.2 mm 1 m/s 746 mmHg 89%
    21:00 -1°C° 0.1 mm 1 m/s 746 mmHg 90%
    22:00 -1°C° 0.1 mm 1 m/s 746 mmHg 91%
    23:00 -1°C° 0.1 mm 1 m/s 747 mmHg 91%

    Mâine, 15 Noiembrie, Joi

    Timp Temperatura Precipitaţii Vânt Presiune Umiditate
    00:00 -2°C° 0 mm 1 m/s 747 mmHg 92%
    01:00 -2°C° 0 mm 1 m/s 748 mmHg 92%
    02:00 -2°C° 0 mm 1 m/s 748 mmHg 93%
    03:00 -2°C° 0 mm 1 m/s 748 mmHg 93%
    04:00 -2°C° 0 mm 1 m/s 749 mmHg 93%
    05:00 -3°C° 0 mm 0 m/s 749 mmHg 93%
    06:00 -3°C° 0 mm 0 m/s 749 mmHg 94%
    07:00 -2°C° 0 mm 1 m/s 750 mmHg 94%
    08:00 -2°C° 0 mm 1 m/s 750 mmHg 94%
    09:00 -1°C° 0 mm 1 m/s 751 mmHg 92%
    10:00 0°C° 0 mm 1 m/s 751 mmHg 89%
    11:00 0°C° 0 mm 1 m/s 752 mmHg 87%
    12:00 +1°C° 0 mm 1 m/s 752 mmHg 86%
    13:00 0°C° 0 mm 0 m/s 752 mmHg 86%
    14:00 0°C° 0 mm 0 m/s 753 mmHg 86%
    15:00 -1°C° 0 mm 0 m/s 753 mmHg 88%
    16:00 -2°C° 0 mm 0 m/s 753 mmHg 91%
    17:00 -2°C° 0 mm 0 m/s 754 mmHg 93%
    18:00 -3°C° 0 mm 0 m/s 754 mmHg 94%
    19:00 -2°C° 0 mm 1 m/s 754 mmHg 94%
    20:00 -2°C° 0 mm 1 m/s 755 mmHg 95%
    21:00 -2°C° 0 mm 1 m/s 755 mmHg 95%
    22:00 -2°C° 0 mm 1 m/s 755 mmHg 95%
    23:00 -3°C° 0 mm 1 m/s 756 mmHg 96%

    Poimâine, 16 Noiembrie, Vineri

    Timp Temperatura Precipitaţii Vânt Presiune Umiditate
    00:00 -3°C° 0 mm 1 m/s 756 mmHg 96%
    01:00 -3°C° 0 mm 1 m/s 756 mmHg 96%
    02:00 -3°C° 0 mm 1 m/s 756 mmHg 96%
    03:00 -3°C° 0 mm 1 m/s 757 mmHg 96%
    04:00 -3°C° 0 mm 1 m/s 757 mmHg 96%
    05:00 -3°C° 0 mm 1 m/s 757 mmHg 96%
    06:00 -3°C° 0 mm 1 m/s 757 mmHg 96%
    07:00 -3°C° 0 mm 1 m/s 757 mmHg 96%
    08:00 -3°C° 0 mm 1 m/s 758 mmHg 96%
    09:00 -2°C° 0 mm 1 m/s 758 mmHg 94%
    10:00 -2°C° 0 mm 2 m/s 758 mmHg 91%
    11:00 -1°C° 0 mm 2 m/s 758 mmHg 89%
    12:00 -1°C° 0 mm 2 m/s 758 mmHg 89%
    13:00 -1°C° 0 mm 2 m/s 758 mmHg 90%
    14:00 -1°C° 0 mm 2 m/s 758 mmHg 91%
    15:00 -1°C° 0 mm 2 m/s 758 mmHg 92%
    16:00 -2°C° 0 mm 2 m/s 758 mmHg 94%
    17:00 -3°C° 0 mm 2 m/s 758 mmHg 96%
    18:00 -3°C° 0 mm 2 m/s 758 mmHg 96%
    19:00 -3°C° 0 mm 2 m/s 758 mmHg 96%
    20:00 -3°C° 0 mm 2 m/s 758 mmHg 96%
    21:00 -3°C° 0 mm 2 m/s 758 mmHg 96%
    22:00 -3°C° 0 mm 2 m/s 758 mmHg 96%
    23:00 -3°C° 0 mm 2 m/s 758 mmHg 96%

    17 Noiembrie, Sâmbătă

    Timp Temperatura Precipitaţii Vânt Presiune Umiditate
    00:00 -3°C° 0 mm 2 m/s 757 mmHg 95%
    01:00 -3°C° 0 mm 2 m/s 757 mmHg 95%
    02:00 -2°C° 0 mm 3 m/s 757 mmHg 95%
    03:00 -2°C° 0.1 mm 3 m/s 757 mmHg 95%
    04:00 -2°C° 0.1 mm 3 m/s 756 mmHg 94%
    05:00 -1°C° 0.1 mm 3 m/s 756 mmHg 94%
    06:00 -1°C° 0.1 mm 3 m/s 755 mmHg 94%
    07:00 -1°C° 0.1 mm 3 m/s 755 mmHg 94%
    08:00 -1°C° 0.1 mm 3 m/s 755 mmHg 95%
    09:00 0°C° 0 mm 3 m/s 754 mmHg 95%
    10:00 0°C° 0 mm 3 m/s 754 mmHg 95%
    11:00 0°C° 0 mm 4 m/s 753 mmHg 95%
    12:00 0°C° 0.1 mm 4 m/s 753 mmHg 95%
    13:00 0°C° 0.1 mm 4 m/s 752 mmHg 95%
    14:00 0°C° 0.1 mm 4 m/s 751 mmHg 96%
    15:00 0°C° 0.1 mm 4 m/s 750 mmHg 95%
    16:00 0°C° 0.1 mm 4 m/s 750 mmHg 95%
    17:00 0°C° 0.1 mm 4 m/s 749 mmHg 95%
    18:00 0°C° 0 mm 4 m/s 748 mmHg 95%
    19:00 0°C° 0 mm 4 m/s 747 mmHg 95%
    20:00 +1°C° 0 mm 4 m/s 746 mmHg 95%
    21:00 +1°C° 0.1 mm 4 m/s 746 mmHg 95%
    22:00 +2°C° 0.1 mm 3 m/s 745 mmHg 95%
    23:00 +1°C° 0.1 mm 3 m/s 744 mmHg 95%

    18 Noiembrie, Duminică

    Timp Temperatura Precipitaţii Vânt Presiune Umiditate
    00:00 +1°C° 0.1 mm 3 m/s 744 mmHg 95%
    01:00 +1°C° 0.1 mm 3 m/s 743 mmHg 95%
    02:00 +1°C° 0.1 mm 3 m/s 743 mmHg 96%
    03:00 +1°C° 0.2 mm 3 m/s 742 mmHg 95%
    04:00 +1°C° 0.2 mm 3 m/s 742 mmHg 95%
    05:00 +1°C° 0.2 mm 3 m/s 741 mmHg 95%
    06:00 +1°C° 0.1 mm 3 m/s 741 mmHg 95%
    07:00 +1°C° 0.1 mm 3 m/s 741 mmHg 95%
    08:00 +1°C° 0.1 mm 3 m/s 741 mmHg 95%
    09:00 +1°C° 0.1 mm 3 m/s 741 mmHg 95%
    10:00 +1°C° 0.1 mm 3 m/s 741 mmHg 94%
    11:00 +2°C° 0.1 mm 3 m/s 741 mmHg 93%
    12:00 +2°C° 0.3 mm 3 m/s 741 mmHg 93%
    13:00 +1°C° 0.3 mm 3 m/s 741 mmHg 93%
    14:00 +1°C° 0.3 mm 3 m/s 741 mmHg 94%
    15:00 +1°C° 0.1 mm 3 m/s 741 mmHg 93%
    16:00 +1°C° 0.1 mm 3 m/s 742 mmHg 93%
    17:00 +1°C° 0.1 mm 3 m/s 742 mmHg 93%
    18:00 +1°C° 0.1 mm 3 m/s 742 mmHg 93%
    19:00 0°C° 0.1 mm 3 m/s 743 mmHg 93%
    20:00 0°C° 0.1 mm 3 m/s 743 mmHg 92%
    21:00 0°C° 0.2 mm 3 m/s 743 mmHg 92%
    22:00 0°C° 0.2 mm 3 m/s 743 mmHg 92%
    23:00 0°C° 0.2 mm 3 m/s 744 mmHg 92%

    19 Noiembrie, Luni

    Timp Temperatura Precipitaţii Vânt Presiune Umiditate
    00:00 0°C° 0.1 mm 3 m/s 744 mmHg 91%
    01:00 0°C° 0.1 mm 3 m/s 745 mmHg 91%
    02:00 -1°C° 0.1 mm 4 m/s 745 mmHg 91%
    03:00 -1°C° 0.1 mm 4 m/s 746 mmHg 90%
    04:00 -1°C° 0.1 mm 4 m/s 746 mmHg 90%
    05:00 -1°C° 0.1 mm 4 m/s 747 mmHg 89%
    06:00 -1°C° 0 mm 4 m/s 747 mmHg 89%
    07:00 -1°C° 0 mm 4 m/s 748 mmHg 90%
    08:00 -2°C° 0 mm 4 m/s 749 mmHg 90%
    09:00 -1°C° 0 mm 4 m/s 749 mmHg 88%
    10:00 -1°C° 0 mm 4 m/s 750 mmHg 87%
    11:00 -1°C° 0 mm 5 m/s 751 mmHg 85%
    12:00 -1°C° 0 mm 5 m/s 751 mmHg 84%
    13:00 -1°C° 0 mm 5 m/s 752 mmHg 83%
    14:00 -1°C° 0 mm 5 m/s 752 mmHg 82%
    15:00 -2°C° 0 mm 5 m/s 752 mmHg 81%
    16:00 -3°C° 0 mm 4 m/s 753 mmHg 80%
    17:00 -4°C° 0 mm 4 m/s 753 mmHg 79%
    18:00 -4°C° 0 mm 4 m/s 754 mmHg 80%
    19:00 -4°C° 0 mm 4 m/s 754 mmHg 80%
    20:00 -4°C° 0 mm 3 m/s 755 mmHg 81%
    21:00 -4°C° 0 mm 3 m/s 755 mmHg 82%
    22:00 -4°C° 0 mm 3 m/s 755 mmHg 83%
    23:00 -4°C° 0 mm 3 m/s 756 mmHg 84%
    Arată mai mult